Terminal Aerodrome Forecast
Issued by NWS

Home | Current Version | Previous Version | Text Only | Print | Product List | Glossary On
Versions: 1 2 3 4 5 6 7 8 9 10 11 12 13 14 15 16 17 18 19 20 21 22 23 24 25
459
FTUS44 KSJT 171858 AAA
TAFSOA
TAF AMD
KSOA 171858Z 1719/1818 05011KT 6SM -TSRA BR OVC020CB
     FM172000 04010KT 4SM -TSRA BR OVC012CB
     FM172300 04010KT 4SM BR VCSH OVC007
     FM180200 03006KT 3SM -DZ BR OVC003=

USA.gov is the U.S. government's official web portal to all federal, state and local government web resources and services.